When you browse on this site, cookies collect data to enhance your experience and personalize the content and advertising you see.
Visit our Privacy Policy to learn more. By continuing to use the site, you agree to this use of cookies and data.
  • In Hungary
  • List of Countries
  • For 7 days
  • Water Temperature
  • Satellite Maps
  • Weather Map
  • News
  • Weather Widgets
  • user-avatar
    Login

    Hourly Weather Luksor

    Today, 22 April, Monday

    Time Temperature Precipitation Wind Pressure Humidity
    00:00 +20°C° 0 mm 6 mps 754 mmHg 28%
    01:00 +19°C° 0 mm 6 mps 754 mmHg 29%
    02:00 +19°C° 0 mm 5 mps 754 mmHg 30%
    03:00 +17°C° 0 mm 5 mps 754 mmHg 32%
    04:00 +17°C° 0 mm 4 mps 754 mmHg 33%
    05:00 +17°C° 0 mm 3 mps 754 mmHg 35%
    06:00 +18°C° 0 mm 3 mps 754 mmHg 33%
    07:00 +19°C° 0 mm 3 mps 754 mmHg 30%
    08:00 +20°C° 0 mm 4 mps 754 mmHg 28%
    09:00 +22°C° 0 mm 4 mps 754 mmHg 23%
    10:00 +25°C° 0 mm 4 mps 754 mmHg 19%
    11:00 +26°C° 0 mm 5 mps 754 mmHg 14%
    12:00 +28°C° 0 mm 5 mps 754 mmHg 12%
    13:00 +29°C° 0 mm 5 mps 753 mmHg 10%
    14:00 +30°C° 0 mm 5 mps 753 mmHg 7%
    15:00 +30°C° 0 mm 5 mps 753 mmHg 7%
    16:00 +30°C° 0 mm 5 mps 752 mmHg 6%
    17:00 +32°C° 0 mm 5 mps 752 mmHg 6%
    18:00 +29°C° 0 mm 6 mps 753 mmHg 7%
    19:00 +28°C° 0 mm 6 mps 753 mmHg 8%
    20:00 +26°C° 0 mm 6 mps 753 mmHg 9%
    21:00 +25°C° 0 mm 5 mps 753 mmHg 11%
    22:00 +23°C° 0 mm 4 mps 754 mmHg 13%
    23:00 +22°C° 0 mm 3 mps 754 mmHg 16%

    Tomorrow, 23 April, Tuesday

    Time Temperature Precipitation Wind Pressure Humidity
    00:00 +23°C° 0 mm 2 mps 754 mmHg 18%
    01:00 +21°C° 0 mm 2 mps 754 mmHg 19%
    02:00 +20°C° 0 mm 2 mps 754 mmHg 21%
    03:00 +20°C° 0 mm 2 mps 754 mmHg 22%
    04:00 +19°C° 0 mm 2 mps 754 mmHg 24%
    05:00 +19°C° 0 mm 2 mps 754 mmHg 26%
    06:00 +20°C° 0 mm 2 mps 754 mmHg 24%
    07:00 +23°C° 0 mm 2 mps 755 mmHg 22%
    08:00 +24°C° 0 mm 2 mps 755 mmHg 21%
    09:00 +26°C° 0 mm 2 mps 755 mmHg 17%
    10:00 +28°C° 0 mm 3 mps 755 mmHg 14%
    11:00 +30°C° 0 mm 3 mps 755 mmHg 10%
    12:00 +32°C° 0 mm 4 mps 754 mmHg 9%
    13:00 +34°C° 0 mm 4 mps 754 mmHg 7%
    14:00 +35°C° 0 mm 4 mps 753 mmHg 5%
    15:00 +35°C° 0 mm 4 mps 753 mmHg 5%
    16:00 +35°C° 0 mm 4 mps 752 mmHg 5%
    17:00 +35°C° 0 mm 4 mps 752 mmHg 4%
    18:00 +33°C° 0 mm 4 mps 753 mmHg 5%
    19:00 +30°C° 0 mm 4 mps 753 mmHg 6%
    20:00 +29°C° 0 mm 4 mps 753 mmHg 7%
    21:00 +27°C° 0 mm 3 mps 753 mmHg 7%
    22:00 +26°C° 0 mm 2 mps 754 mmHg 8%
    23:00 +25°C° 0 mm 1 mps 754 mmHg 8%

    Day after tomorrow, 24 April, Wednesday

    Time Temperature Precipitation Wind Pressure Humidity
    00:00 +24°C° 0 mm 1 mps 754 mmHg 9%
    01:00 +24°C° 0 mm 1 mps 753 mmHg 9%
    02:00 +23°C° 0 mm 1 mps 753 mmHg 10%
    03:00 +23°C° 0 mm 1 mps 753 mmHg 10%
    04:00 +23°C° 0 mm 1 mps 753 mmHg 11%
    05:00 +21°C° 0 mm 2 mps 753 mmHg 11%
    06:00 +25°C° 0 mm 2 mps 754 mmHg 10%
    07:00 +27°C° 0 mm 3 mps 754 mmHg 9%
    08:00 +29°C° 0 mm 4 mps 755 mmHg 7%
    09:00 +32°C° 0 mm 4 mps 755 mmHg 7%
    10:00 +34°C° 0 mm 5 mps 754 mmHg 6%
    11:00 +38°C° 0 mm 6 mps 754 mmHg 6%
    12:00 +39°C° 0 mm 6 mps 754 mmHg 5%
    13:00 +39°C° 0 mm 6 mps 753 mmHg 5%
    14:00 +40°C° 0 mm 6 mps 753 mmHg 5%
    15:00 +40°C° 0 mm 7 mps 752 mmHg 6%
    16:00 +39°C° 0 mm 7 mps 752 mmHg 6%
    17:00 +38°C° 0 mm 7 mps 752 mmHg 6%
    18:00 +35°C° 0 mm 6 mps 752 mmHg 7%
    19:00 +33°C° 0 mm 4 mps 752 mmHg 8%
    20:00 +30°C° 0 mm 3 mps 753 mmHg 9%
    21:00 +29°C° 0 mm 2 mps 753 mmHg 9%
    22:00 +28°C° 0 mm 2 mps 753 mmHg 10%
    23:00 +27°C° 0 mm 1 mps 753 mmHg 10%

    25 April, Thursday

    Time Temperature Precipitation Wind Pressure Humidity
    00:00 +26°C° 0 mm 1 mps 753 mmHg 10%
    01:00 +26°C° 0 mm 1 mps 752 mmHg 10%
    02:00 +26°C° 0 mm 1 mps 752 mmHg 11%
    03:00 +25°C° 0 mm 1 mps 752 mmHg 11%
    04:00 +25°C° 0 mm 1 mps 752 mmHg 12%
    05:00 +24°C° 0 mm 1 mps 752 mmHg 12%
    06:00 +26°C° 0 mm 1 mps 752 mmHg 11%
    07:00 +29°C° 0 mm 2 mps 753 mmHg 10%
    08:00 +31°C° 0 mm 3 mps 753 mmHg 8%
    09:00 +34°C° 0 mm 3 mps 753 mmHg 7%
    10:00 +36°C° 0 mm 4 mps 753 mmHg 6%
    11:00 +39°C° 0 mm 5 mps 753 mmHg 5%
    12:00 +40°C° 0 mm 5 mps 752 mmHg 5%
    13:00 +41°C° 0 mm 5 mps 751 mmHg 5%
    14:00 +42°C° 0 mm 5 mps 750 mmHg 4%
    15:00 +42°C° 0 mm 5 mps 750 mmHg 4%
    16:00 +41°C° 0 mm 5 mps 750 mmHg 5%
    17:00 +41°C° 0 mm 5 mps 750 mmHg 5%
    18:00 +39°C° 0 mm 5 mps 750 mmHg 6%
    19:00 +36°C° 0 mm 5 mps 750 mmHg 7%
    20:00 +34°C° 0 mm 5 mps 751 mmHg 8%
    21:00 +33°C° 0 mm 4 mps 751 mmHg 8%
    22:00 +31°C° 0 mm 3 mps 751 mmHg 9%
    23:00 +30°C° 0 mm 2 mps 751 mmHg 10%

    26 April, Friday

    Time Temperature Precipitation Wind Pressure Humidity
    00:00 +29°C° 0 mm 1 mps 750 mmHg 11%
    01:00 +28°C° 0 mm 1 mps 750 mmHg 13%
    02:00 +27°C° 0 mm 1 mps 750 mmHg 14%
    03:00 +27°C° 0 mm 1 mps 750 mmHg 16%
    04:00 +26°C° 0 mm 1 mps 750 mmHg 17%
    05:00 +26°C° 0 mm 1 mps 750 mmHg 18%
    06:00 +28°C° 0 mm 1 mps 750 mmHg 17%
    07:00 +29°C° 0 mm 2 mps 751 mmHg 16%
    08:00 +31°C° 0 mm 2 mps 751 mmHg 14%
    09:00 +34°C° 0 mm 2 mps 751 mmHg 12%
    10:00 +36°C° 0 mm 3 mps 751 mmHg 10%
    11:00 +38°C° 0 mm 3 mps 750 mmHg 8%
    12:00 +39°C° 0 mm 3 mps 750 mmHg 7%
    13:00 +40°C° 0 mm 3 mps 749 mmHg 6%
    14:00 +42°C° 0 mm 3 mps 748 mmHg 6%
    15:00 +40°C° 0 mm 3 mps 748 mmHg 6%
    16:00 +41°C° 0 mm 4 mps 748 mmHg 6%
    17:00 +41°C° 0 mm 4 mps 748 mmHg 6%
    18:00 +38°C° 0 mm 4 mps 748 mmHg 7%
    19:00 +36°C° 0 mm 4 mps 749 mmHg 7%
    20:00 +35°C° 0 mm 4 mps 749 mmHg 8%
    21:00 +34°C° 0 mm 4 mps 749 mmHg 9%
    22:00 +33°C° 0 mm 3 mps 749 mmHg 10%
    23:00 +31°C° 0 mm 2 mps 749 mmHg 10%

    27 April, Saturday

    Time Temperature Precipitation Wind Pressure Humidity
    00:00 +30°C° 0 mm 2 mps 749 mmHg 11%
    01:00 +29°C° 0 mm 2 mps 749 mmHg 13%
    02:00 +28°C° 0 mm 2 mps 749 mmHg 14%
    03:00 +28°C° 0 mm 2 mps 749 mmHg 16%
    04:00 +27°C° 0 mm 2 mps 749 mmHg 17%
    05:00 +26°C° 0 mm 2 mps 749 mmHg 19%
    06:00 +28°C° 0 mm 2 mps 749 mmHg 17%
    07:00 +29°C° 0 mm 2 mps 750 mmHg 16%
    08:00 +31°C° 0 mm 3 mps 750 mmHg 15%
    09:00 +34°C° 0 mm 3 mps 750 mmHg 13%
    10:00 +35°C° 0 mm 4 mps 750 mmHg 11%
    11:00 +37°C° 0 mm 5 mps 749 mmHg 9%
    12:00 +39°C° 0 mm 5 mps 749 mmHg 8%
    13:00 +40°C° 0 mm 5 mps 748 mmHg 7%
    14:00 +42°C° 0 mm 6 mps 748 mmHg 6%
    15:00 +41°C° 0 mm 6 mps 748 mmHg 6%
    16:00 +41°C° 0 mm 7 mps 748 mmHg 7%
    17:00 +41°C° 0 mm 8 mps 748 mmHg 7%
    18:00 +39°C° 0 mm 7 mps 748 mmHg 8%
    19:00 +38°C° 0 mm 6 mps 749 mmHg 9%
    20:00 +35°C° 0 mm 5 mps 749 mmHg 10%
    21:00 +34°C° 0 mm 4 mps 749 mmHg 11%
    22:00 +33°C° 0 mm 3 mps 750 mmHg 13%
    23:00 +31°C° 0 mm 3 mps 750 mmHg 14%
    Show more